Weather Roundup
Issued by NWS Springfield, MO

Home | Current Version | Previous Version | Text Only | Print | Product List | Glossary On
Versions: 1 2 3 4 5 6 7 8 9 10 11 12 13 14 15 16 17 18 19 20 21 22 23 24 25 26 27 28 29 30 31 32 33 34 35 36 37 38 39 40 41 42 43 44 45 46 47 48 49 50
000
NZUS99 KSGF 290407
HRRSGF

HOURLY WEATHER
NATIONAL WEATHER SERVICE SPRINGFIELD MO
1100 PM CDT THU APR 28 2016

......SGF CWA......

CITY           SKY/WX    TMP DP  RH WIND       PRES   REMARKS
SPRINGFIELD    CLEAR     60  47  61 NE7       29.99S
JOPLIN         CLOUDY    59  50  72 E6        29.99R
WEST PLAINS    CLEAR     58  45  62 CALM      30.01F
ROLLA          CLEAR     53  49  86 NE7       30.01R
OSAGE BEACH    CLEAR     55  43  62 N6        30.03R

......SURROUNDING SGF CWA......

CITY           SKY/WX    TMP DP  RH WIND       PRES   REMARKS
CHANUTE        CLOUDY    60  49  66 N8        30.00R
PARSONS        CLOUDY    57  53  86 CALM      30.00R
COFFEYVILLE    CLOUDY    58  52  80 N6        29.97S
EMPORIA        CLOUDY    54  47  77 N10       30.06R
GROVE OK       CLOUDY    61  52  72 CALM      29.96S
ROGERS AR      CLOUDY    62  46  55 E9        29.98S
SILOAM SPRINGS CLOUDY    63  45  51 E3        29.96S
HARRISON AR    CLOUDY    59  45  59 CALM      29.99S
NEAR YELLVILLE CLOUDY   N/A N/A N/A N5        29.95S

......KANSAS AND MISSOURI......

CITY           SKY/WX    TMP DP  RH WIND       PRES   REMARKS
KANSAS CTY INT CLOUDY    51  46  83 N7        30.06S
DOWNTOWN KC    CLEAR     53  46  77 N5        30.06R
COLUMBIA       CLEAR     52  48  86 N5        30.03S
SEDALIA        CLEAR     53  48  83 N5        30.05S
ST JOSEPH      CLOUDY    51  45  79 N8        30.08R
ST LOUIS       CLEAR     59  49  69 W3        30.02R
SPIRIT OF STL  CLEAR     56  51  84 CALM      30.02R
KIRKSVILLE     CLOUDY    53  45  74 NW5       30.04S
WICHITA        CLOUDY    60  48  64 NE13      30.02R
TOPEKA         MOCLDY    51  46  83 NW3       30.08R
OLATHE         CLOUDY    51  45  79 N5        30.06R

......TENNESSEE......

CITY           SKY/WX    TMP DP  RH WIND       PRES   REMARKS
MEMPHIS        CLEAR     68  54  60 CALM      29.97S
NASHVILLE      CLEAR     64  53  67 CALM      29.99R

......ARKANSAS.......

CITY           SKY/WX    TMP DP  RH WIND       PRES   REMARKS
FAYETTEVILLE   CLOUDY    56  52  86 CALM      29.97R
FT SMITH       CLOUDY    68  49  50 NE5       29.91S
LITTLE ROCK    PTCLDY    69  54  58 NE5       29.93S

......OKLAHOMA.......

CITY           SKY/WX    TMP DP  RH WIND       PRES   REMARKS
TULSA          CLOUDY    64  52  64 N6        29.92R
PONCA CITY     CLOUDY    62  49  62 NE8       29.96S
MCALESTER      CLOUDY    67  54  63 E5        29.89F
OKLAHOMA CITY  MOCLDY    64  52  64 NE13      29.88R

......IOWA............

CITY           SKY/WX    TMP DP  RH WIND       PRES   REMARKS
DES MOINES     DRIZZLE   49  45  86 NW9       30.06R FOG
QUAD CITIES    CLOUDY    51  48  89 SE3       29.99S FOG

......ILLINOIS........

CITY           SKY/WX    TMP DP  RH WIND       PRES   REMARKS
QUINCY         CLOUDY    56  47  71 W7        30.02S
CHICAGO        CLOUDY    42  41  96 N10G22    30.00F FOG



USA.gov is the U.S. government's official web portal to all federal, state and local government web resources and services.